This is the latest recevied weather packets stored in our database for station/object N0MPM-4. If no packets are shown the sender has not sent any weather packets the latest 10 day(s).
| Time | Temp. | Humidity | Pressure | Rain* | Wind** | Luminosity | Snow |
|---|---|---|---|---|---|---|---|
| 1787524101 | 26.11° C | 56% | 1016.9 hPa | 0 mm | - | - | - |
| 1787523801 | 26.11° C | 59% | 1016.9 hPa | 0 mm | - | - | - |
| 1787523744 | 26.11° C | 56% | 1016.9 hPa | 0 mm | - | - | - |
| 1787523501 | 26.11° C | 55% | 1016.9 hPa | 0 mm | - | - | - |
| 1787523382 | 26.11° C | 55% | 1017 hPa | 0 mm | - | - | - |
| 1787523201 | 26.11° C | 55% | 1017 hPa | 0 mm | - | - | - |
| 1787523023 | 26.11° C | 56% | 1016.9 hPa | 0 mm | - | - | - |
| 1787522901 | 26.11° C | 56% | 1016.9 hPa | 0 mm | - | - | - |
| 1787522662 | 26.11° C | 54% | 1016.9 hPa | 0 mm | - | - | - |
| 1787522601 | 26.11° C | 54% | 1016.9 hPa | 0 mm | - | - | - |
| 1787522301 | 26.11° C | 57% | 1017 hPa | 0 mm | - | - | - |
| 1787522001 | 25.56° C | 58% | 1017.1 hPa | 0 mm | - | - | - |
| 1787521943 | 25.56° C | 56% | 1017 hPa | 0 mm | - | - | - |
| 1787521701 | 26.11° C | 58% | 1017.1 hPa | 0 mm | - | - | - |
| 1787521583 | 26.11° C | 57% | 1017.1 hPa | 0 mm | - | - | - |
| 1787521401 | 26.11° C | 58% | 1017.3 hPa | 0 mm | - | - | - |
| 1787521222 | 26.11° C | 55% | 1017.3 hPa | 0 mm | - | - | - |
| 1787521101 | 26.11° C | 55% | 1017.2 hPa | 0 mm | - | - | - |
| 1787520863 | 25.56° C | 57% | 1017.2 hPa | 0 mm | - | - | - |
| 1787520801 | 25.56° C | 58% | 1017.2 hPa | 0 mm | - | - | - |
| 1787520501 | 26.11° C | 58% | 1017.2 hPa | 0 mm | - | - | - |
| 1787520201 | 25.56° C | 57% | 1017.3 hPa | 0 mm | - | - | - |
| 1787520144 | 26.11° C | 56% | 1017.3 hPa | 0 mm | - | - | - |
| 1787519902 | 25.56° C | 57% | 1017.3 hPa | 0 mm | - | - | - |
| 1787519783 | 25.56° C | 58% | 1017.4 hPa | 0 mm | - | - | - |
* Rain latest hour (hover to see other rain measurements)
** Current wind speed in m/s (hover to see current wind gust speed)